Flag for Canada Weather past 2 weeks in Belleville, Ontario, Canada

Now
32 °F

Overcast.


Feels Like: 22 °F
Forecast: 12 / 32 °F
Wind: 14 mph from West

Location: Trenton

Current Time: Mar 4, 2015 at 3:50:35 AM

Latest Report: Mar 4, 2015 at 3:00 AM


Visibility: 15 mi

Pressure: 29.70 "Hg

Humidity: 80%

Dew point: 27 °F

Location of BellevilleLocation

Historic Weather in Belleville — Graph

°F

Belleville temperature yesterday

Maximum temperature yesterday: 34 °F (at 10:48 PM)
Minimum temperature yesterday: -4 °F (at 5:00 AM)
Average temperature yesterday: 16 °F

Past Weeks' High & Low Weather Summary

 TemperatureHumidityPressure
High34 °F (Mar 3, 10:48 PM)100% (Feb 18, 6:00 AM)30.78 "Hg (Feb 18, 6:00 AM)
Low-13 °F (Feb 28, 6:00 AM)36% (Feb 20, 3:00 PM)29.55 "Hg (Mar 3, 9:00 PM)
Average10 °F69%30.16 "Hg
* Reported Feb 17 2:00 AM — Mar 4 2:00 AM, Belleville, Weather by CustomWeather, © 2015

Note: Actual official high and low records may vary slightly from our data, if they occured in-between our weather recording intervals... More about our weather records

Advertising

Belleville weather history for previous 24 hours

 ConditionsComfort  
Time TempWeatherWind HumidityBarometerVisibility
2:00 AM
Wed, Mar 4
34 °FOvercast.17 mph81%29.67 "Hg15 mi
1:00 AM34 °FOvercast.16 mph93%29.62 "Hg15 mi
12:00 AM34 °FOvercast.16 mph93%29.59 "Hg15 mi
11:00 PM
Tue, Mar 3
34 °FOvercast.18 mph93%29.59 "Hg15 mi
10:48 PM34 °FOvercast.17 mph93%29.58 "Hg15 mi
10:00 PM30 °FIce fog.7 mph100%29.56 "Hg2 mi
9:00 PM28 °FLight freezing rain. Low clouds.9 mph93%29.55 "Hg1 mi
8:00 PM27 °FLight freezing rain. Ice fog.13 mph93%29.58 "Hg2 mi
7:00 PM27 °FLight snow. Overcast.10 mph93%29.63 "Hg2 mi
6:00 PM25 °FSnow. Low clouds.8 mph93%29.69 "Hg1 mi
5:00 PM23 °FLight snow. Low clouds.7 mph93%29.78 "Hg1 mi
4:48 PM23 °FLight snow. Overcast.12 mph93%29.79 "Hg1 mi
4:00 PM23 °FLight snow. Low clouds.10 mph93%29.85 "Hg1 mi
3:00 PM21 °FSnow. Overcast.8 mph93%29.93 "Hg1 mi
2:00 PM23 °FSnow flurries. Overcast.14 mph74%30.01 "Hg2 mi
1:00 PM23 °FMore clouds than sun.10 mph68%30.10 "Hg9 mi
12:00 PM23 °FMostly cloudy.10 mph68%30.17 "Hg9 mi
11:00 AM19 °FMostly cloudy.2 mph79%30.23 "Hg9 mi
10:00 AM14 °FSnow flurries. Mostly cloudy.5 mph85%30.28 "Hg8 mi
9:49 AM14 °FSnow flurries. Mostly cloudy.5 mph85%30.29 "Hg6 mi
9:00 AM9 °FSnow flurries. Mostly cloudy.3 mph85%30.29 "Hg8 mi
8:00 AM1 °FBroken clouds.2 mph78%30.33 "Hg12 mi
7:00 AM-4 °FPartly sunny.3 mph77%30.36 "Hg12 mi
6:00 AM-4 °FPassing clouds.2 mph77%30.38 "Hg15 mi
5:00 AM-4 °FPassing clouds.2 mph92%30.39 "Hg15 mi
4:00 AM-2 °FPassing clouds.No wind92%30.38 "Hg15 mi
3:00 AM1 °FPassing clouds.No wind85%30.38 "Hg15 mi
Weather by CustomWeather, © 2015

See weather overviewHow to use our weather pages